Tracking 28790 objects as of 19-Apr-2024
HD Live streaming from Space Station
objects crossing your sky now

SL-14 R/B

Track SL-14 R/B now!
10-day predictions
SL-14 R/B is classified as:


NORAD ID: 16792
Int'l Code: 1986-046B
Perigee: 606.6 km
Apogee: 639.4 km
Inclination: 82.5 °
Period: 97.0 minutes
Semi major axis: 6993 km
RCS: 5.061 m2 (large)
Launch date: June 12, 1986
Source: Commonwealth of Independent States (former USSR) (CIS)
Launch site: PLESETSK MISSILE AND SPACE COMPLEX (PKMTR)

Note: This is a ROCKET BODY
Your satellite tracking list
Your tracking list is empty




NASA's NSSDC Master Catalog

Two Line Element Set (TLE):
1 16792U 86046B   24109.22687307  .00001383  00000-0  16155-3 0  9996
2 16792  82.4859  11.8626 0023495 352.0509   8.0330 14.84280740 23933
Source of the keplerian elements: AFSPC